NOAA 16 DEB, 41507

Orbit data source: Space-Track

NOAA 16 DEB, 41507 is space debris in SSO originally from a launch on Thu, 21 Sep 2000 UTC launched from the Air Force Western Test Range (AFWTR). Debris objects in space refer to the collection of defunct objects orbiting the Earth. Examples of debris include non-operational satellites, rocket bodies, and fragments generated from explosions, collisions, or faulty payload assembly.

Loading next visibility...
Identifier
41507, 2000-055MF
Orbit
SSO
Country
Flag of USUS
Related business
Manufacturer
Unknown
Mission
Spacecraft
Bus & Motor
Unknown
Mass
Unknown
Launch date (UTC)
2000-09-21 (25 years ago)
Launch vehicle
Unknown
Launch site
Air Force Western Test Range (AFWTR)
Object type
Payload
Rocket body
Debris
Shape & HBR
Unknown shape, 0.1 m
Radar Cross Section
Small (<0.1 m²)

Expand to show TLE details & history
Last TLE update: 19 hours ago

TLE from 19 hours ago
0 NOAA 16 DEB
1 41507U 00055MF  25296.41634932  .00021626  00000-0  48699-2 0  9998
2 41507  98.9204  98.9438 0012161  96.5927 263.6654 14.56348571 28298
Epoch: 2025-10-23T09:59Z
TLE epoch observation values (Epoch: 2025-10-23T09:59:32.581Z)
Latitude
0.00004°
Longitude
-83.01788°
Altitude
708.907 km
Speed
7.501 km/s
True Right ascension
06h 35m 46s
True Declination
0° 00' 00"
Sunlit
Object was in daylight at epoch
Visualization orbit readout
Latitude
Unknown
Longitude
Unknown
Altitude
Unknown
Speed
Unknown
Apparent Right ascension
Unknown
Apparent Declination
Unknown
Sunlit
N/A
Visualization observer readout
Local Sidereal Time
00:18:46
Azimuth
Unknown
Elevation
Unknown
Doppler factor
Unknown
Orbital elements
Apogee altitude
710.72 km
Perigee altitude
693.499 km
Semi-major axis
7,080.246 km
Eccentricity
0.00122
Inclination
98.9204°
RAAN
98.9438°
Arg. of periapsis
96.5927°
True anomaly
263.52692°
Mean anomaly
263.6654°
Eccentric anomaly
263.59616°
Mean motion
3.6431 °/min
Orbital period
98.82 mins
BSTAR
0.0048699
Loading maneuver chart data...
Computing Atmospheric mass density...
Loading historical data...
Loading historical data...
Loading historical data...
Loading historical data...
Loading historical data...
Loading historical data...
Loading historical data...

Documentation

Showing up to 5 results
|